Regional Weather Roundup
Issued by NWS

Home | Current Version | Previous Version | Text Only | Print | Product List | Glossary On
Versions: 1 2 3 4 5 6 7 8 9 10 11 12 13 14 15 16 17 18 19 20 21 22 23 24 25 26 27 28 29 30 31 32 33 34 35 36 37
000
ASUS42 KFFC 222303
RWRGA
WEATHER ROUNDUP FOR GEORGIA
NATIONAL WEATHER SERVICE PEACHTREE CITY GA
700 PM EDT WED OCT 22 2014

NOTE: "FAIR" INDICATES FEW OR NO CLOUDS BELOW 12,000 FEET WITH NO
SIGNIFICANT WEATHER AND/OR OBSTRUCTIONS TO VISIBILITY.

* = USE WITH CAUTION. THE STATIONS MARKED WITH AN ASTERISK MAY NOT
REPORT WEATHER SUCH AS PRECIPITATION, FOG, OR THUNDER AND ARE NOT
QUALITY CONTROLLED BY NWS.

THE REMARK "TC" DENOTES TEMPERATURE READING IN DEGREES CELSIUS.

GAZ001>058-230000-
NORTH GEORGIA

CITY           SKY/WX    TMP DP  RH WIND       PRES   REMARKS
ATLANTA        CLEAR     63  42  46 NW9       30.07R
ATHENS         CLEAR     59  45  59 CALM      30.06R
CHAMBLEE       CLEAR     61  42  49 NW10      30.07R
PEACHTREE CITY CLEAR     62  45  53 W3        30.08R
ROME           CLEAR     60  42  51 N10       30.12R
WEST ATLANTA   CLEAR     62  42  47 NW3       30.08R
GAINESVILLE    CLEAR     63  42  46 NW8       30.08R
CARTERSVILLE   CLEAR     59  41  51 N7        30.11R


CITY           SKY/WX    TMP DP  RH WIND       PRES   REMARKS
DALTON*        CLEAR     55  43  62 N8        30.13S
LAWRENCEVILLE* CLEAR     64  39  39 CALM      30.06R
KENNESAW*      CLEAR     59  39  47 N9        30.11R
$$

GAZ059>098-102>109-230000-
CENTRAL GEORGIA

CITY           SKY/WX    TMP DP  RH WIND       PRES   REMARKS
AUGUSTA-BUSH   CLEAR     61  41  47 N7        30.04R
AUGUSTA-DANIEL CLEAR     65  42  43 N5        30.05R
COLUMBUS       CLEAR     68  41  37 NE3       30.06R
MACON          CLEAR     61  44  53 N5        30.05S
ROBINS AFB     CLEAR     63  46  54 N6        30.04S


CITY           SKY/WX    TMP DP  RH WIND       PRES   REMARKS
LAGRANGE*      CLEAR     68  46  45 N3        30.07S
SYLVANIA*      CLEAR     64  53  68 CALM      30.05R
MILLEDGEVILLE* CLEAR     59  50  72 CALM      30.06R
$$

GAZ099>101-110>166-230000-
SOUTH GEORGIA

CITY           SKY/WX    TMP DP  RH WIND       PRES   REMARKS
SAVANNAH       CLEAR     63  44  50 CALM      30.04R
VALDOSTA       CLEAR     67  43  41 N6        30.01R
ALMA           CLEAR     61  47  59 CALM      30.03R
ST SIMONS      CLEAR     64  46  52 N5        30.03R
FT STEWART     CLEAR     61  49  65 CALM      30.02R
ALBANY         CLEAR     67  44  43 N5        30.06R
HUNTER AFB     CLEAR     65  42  43 N7        30.02R
MOODY AFB      CLEAR     65  47  52 N8        30.02R
BRUNSWICK      CLEAR     63  50  63 N3        30.04R


CITY           SKY/WX    TMP DP  RH WIND       PRES   REMARKS
BAINBRIDGE*    CLEAR     72  46  40 N5        30.02R
MOULTRIE*      CLEAR     70  46  43 N5        30.03S
VIDALIA*       CLEAR     63  45  51 CALM      30.04R
WAYCROSS*      CLEAR     68  50  52 CALM      30.03R
DOUGLAS*       CLEAR     66  46  48 N3        30.05R
$$



USA.gov is the U.S. government's official web portal to all federal, state and local government web resources and services.